Regional Weather Roundup
Issued by NWS

Home | Current Version | Previous Version | Text Only | Print | Product List | Glossary On
Versions: 1 2 3 4 5 6 7 8 9 10 11 12 13 14 15 16 17 18 19 20 21 22 23 24 25 26 27 28 29 30 31 32 33 34 35 36 37 38 39 40 41 42 43 44 45 46 47 48 49 50
000
ASUS44 KLIX 011710
RWRLA
LOUISIANA WEATHER ROUNDUP
NATIONAL WEATHER SERVICE NEW ORLEANS LA
1100 AM CST SUN MAR 01 2015

NOTE: "FAIR" INDICATES FEW OR NO CLOUDS BELOW 12,000 FEET WITH NO
      SIGNIFICANT WEATHER AND/OR OBSTRUCTIONS TO VISIBILITY.
      SKY/WX - SKY CONDITION AND SIGNIFICANT WEATHER.
      TMP - AIR TEMPERATURE.    DP   - DEWPOINT TEMPERATURE.
      RH  - RELATIVE HUMIDITY.  PRES - PRESSURE.
      HX  - HEAT INDEX.         WCI  - WIND CHILL INDEX.

*  THESE STATIONS ARE NOT NWS OR FAA STATIONS AND ARE NOT UNDER
   NWS QUALITY CONTROL.

LAZ040-048-061>063-065-066-069-011800-
SOUTHEAST LOUISIANA

CITY           SKY/WX    TMP DP  RH WIND       PRES   REMARKS
N.O. AUDUBON     N/A     58  58 100 MISG        N/A
N.O. INTL ARPT FOG       59  57  93 E12       30.32S VSB 1/4
N.O. LAKEFRONT FOG       58  55  90 E14       30.34S VSB 1/2
SLIDELL        CLOUDY    58  57  97 SE9       30.34S
BATON ROUGE    CLOUDY    62  58  86 E9        30.31S
BOOTHVILLE     CLOUDY    67  64  90 E13       30.33S
BELLE CHASSE   FOG       61  59  93 E8        30.32F VSB 1/4
BOGALUSA*        N/A     61  55  80 SE7       30.36S
GALLIANO*      CLOUDY    69  65  88 MISG      30.30F
NEW ROADS*     CLOUDY    61  58  91 SE12      30.31S
GONZALES*      LGT RAIN  60  60 100 CALM      30.31S
HAMMOND*       CLOUDY    63  57  82 SE8       30.34S
HOUMA*         PTSUNNY   72  64  78 SE14      30.30S FOG
PORT FOURCHON* PTSUNNY   64  64 100 E10       30.32F FOG

$$

LAZ041-044-053-054-011800-
SOUTHWEST LOUISIANA

CITY           SKY/WX    TMP DP  RH WIND       PRES   REMARKS
LAKE CHARLES   LGT RAIN  63  62  97 SE12      30.24F FOG
LAFAYETTE      LGT RAIN  64  63  94 VRB5      30.26F
PATTERSON      PTSUNNY   68  64  88 SE12      30.30S
SALT POINT       N/A     70  65  84 SE12G21   30.27R
NEW IBERIA     CLOUDY    67  64  90 SE12      30.28F
CHENAULT AIRPK LGT RAIN  64  63  94 SE14      30.25F

$$

LAZ027-028-011800-
CENTRAL LOUISIANA

CITY           SKY/WX    TMP DP  RH WIND       PRES   REMARKS
FORT POLK      NOT AVBL
ALEXANDRIA INT LGT RAIN  56  55  97 VRB3      30.28S FOG
ALEXANDRIA     HVY RAIN  56  53  90 CALM      30.30S

$$

LAZ001-002-011800-
NORTHWEST LOUISIANA

CITY           SKY/WX    TMP DP  RH WIND       PRES   REMARKS
SHREVEPORT     FOG       41  39  93 N9        30.32F VSB 3/4
BARKSDALE AFB  MIX PCPN  40  40  99 N7        30.33F FOG
DTN SHREVEPORT LGT RAIN  39  37  92 N8        30.33F FOG     WCI  33

$$

LAZ014-016-011800-
NORTHEAST LOUISIANA

CITY           SKY/WX    TMP DP  RH WIND       PRES   REMARKS
MONROE         CLOUDY    46  43  89 NE7       30.35S
TALLULAH       LGT RAIN  57  53  86 CALM      30.34R FOG

$$




USA.gov is the U.S. government's official web portal to all federal, state and local government web resources and services.